It's Thursday,
July 28th, 2016
User not logged in
[Run Race Header Image][Run Race logo]
  
Race webcasting is attempted by race directors and their support staff. Please remember that conditions under which they're working may make it difficult to post timely webcast updates... your interest and patience is appreciated!
Race Information
Race Name:Kettle 100 Endurance Runs - 2010
Location:LaGrange
State:Wisconsin, United States
 button: button: Webcast Autoplay
Event Information
Name of Event:Kettle 100 solo
Distance:100.00
Measurement:Miles
Date:Saturday June 5th, 2010
button: Assign Numbers  
Checkpoint:Nordic Center Finish
Distance:100.6 Miles
Gun Start Time:Saturday June 5th, 2010 5:59:50.25 am
Calculate Chip Start Time:< not set >
Y or N... Calculate splits based upon participant chip start time?
Allow Early Chip Start Time:< not set >
Y or N... Allow participants a chip start time prior to gun start?
Pos Race
Number
NameAgeSexTimePace 
1133Darin Schneidewind40M19:54:48.611:52.6
218Brad Bishop24M20:38:12.712:18.5
3110Nolan Ming34M20:51:37.812:26.5
454Andy Emerson41M21:21:22.012:44.2
5134Paul Schoenlaub50M21:26:32.512:47.3
637Norman Decelles25M22:09:29.413:12.9
740Michael DeMeritt49M22:19:14.213:18.7
8156Jason Voccia28M22:54:27.813:39.8
941Drew Deppen27M23:13:31.413:51.1
1010Andrew Barrett43M23:17:24.013:53.4
11107Scott Meyers42M23:35:02.914:04.0
12118Jim Ramacier46M23:35:54.314:04.5
1375Matt Hosking42M23:39:59.314:06.9
1479Dale Humphrey51M23:44:32.914:09.6
1582Bob Jasinski41M24:05:53.514:22.4
16117Norman Plumstead37M24:11:10.114:25.5
1753Jason Elliot36M25:22:52.615:08.3
1858David Files35M25:25:01.815:09.6
19150Eric Tadt22M25:37:21.115:16.9
20153Julie Treder34F25:40:28.815:18.8
2114Patrick Bene46M25:50:14.415:24.6
2276David House28M25:50:14.515:24.6
2352Jennifer Eichelberger39F25:51:02.615:25.1
2446craig duhn34M25:59:23.515:30.1
2589Thomas Keene29M26:22:47.415:44.0
2629Cynthia Carlson40F26:31:09.015:49.0
2795Willie Lambert47M26:41:32.615:55.2
28125Daryl Saari47M26:42:43.715:55.9
2922Rick Bothwell48M27:17:34.616:16.7
30163Paul Wilkerson34M27:19:45.716:18.0
3177Alicia Hudelson25F27:24:10.516:20.6
3249Greg Dyck44M27:31:59.716:25.3
3330Clint Cherepa31M27:36:22.016:27.9
3433Benjamin Clark19M27:38:34.516:29.2
35144Dustin Speer29M27:40:19.416:30.3
36158Deb Vomhof48F27:41:34.116:31.0
37114George Peterka50M27:46:04.816:33.7
388Angela Barbera49F27:54:01.816:38.4
39141Michael Siltman41M28:13:46.316:50.2
40159Rick Wagar47M28:21:51.516:55.0
41106William Mcalpine36M28:24:29.416:56.6
42145Phil Stapert44M28:36:04.417:03.5
43103Aaron mascarella39M28:40:28.417:06.1
4419BrendaU Bland50F28:55:55.617:15.3
4569Dennis Hanna54M29:07:45.717:22.4
4659Mary Flaws43F29:07:46.117:22.4
47149Kazimierz Swistun58M29:09:13.717:23.3
48122Andrea Risi38F29:23:06.417:31.6
4913Matt Bartz35M29:35:36.617:39.0
50105Michael Matteson51M29:40:37.617:42.0
51116Richard Plezia51M29:44:20.817:44.2

Event Information
Name of Event:Kettle 100 solo
Distance:100.00
Measurement:Kilometers
Date:Saturday June 5th, 2010
button: Assign Numbers 

Event Information
Name of Event:Kettle 100 relay
Distance:100.00
Measurement:Miles
Date:Saturday June 5th, 2010
button: Assign Numbers 

Event Information
Name of Event:Kettle 38 solo
Distance:38.00
Measurement:Miles
Date:Saturday June 5th, 2010
button: Assign Numbers 
2004-2016 : All rights reserved
Terms and Conditions